Villa Grove, CO

8:47 AM MST on December 07, 2016 (GMT -0700)
Monarch Pass

Weather History for KMYP - April, 2014

Change the Weather History Date:

Wednesday, April 16, 2014

  Actual Average (KGUC) Record (KGUC)
Temperature  
Mean Temperature 26 °F -  
Max Temperature 32 °F 51 °F 64 °F (2005)
Min Temperature 19 °F 22 °F 8 °F (1999)
Degree Days  
Heating Degree Days 40    
Moisture  
Dew Point 13 °F    
Average Humidity 59    
Maximum Humidity 93    
Minimum Humidity 40    
Precipitation  
Precipitation 0.00 in - - ()
Sea Level Pressure  
Sea Level Pressure 30.10 in    
Wind  
Wind Speed 33 mph (West)    
Max Wind Speed 51 mph    
Max Gust Speed 59 mph    
Visibility 8 miles    
Events Fog , Snow    
Averages and records for this station are not official NWS values.
T = Trace of Precipitation, MM = Missing Value Source: NWS Daily Summary

Daily Weather History Graph

Daily Weather History Graph

Search for Another Location

Airport or City:

Trip Planner

Search our weather history database for the weather conditions in past years. The results will help you decide how hot, cold, wet, or windy it might be!

Date:

Astronomy

Apr. 16, 2014 Rise Set
Actual Time 6:27 AM MDT 7:42 PM MDT
Civil Twilight 6:00 AM MDT 8:10 PM MDT
Nautical Twilight 5:27 AM MDT 8:43 PM MDT
Astronomical Twilight 4:53 AM MDT 9:17 PM MDT
Moon 9:28 PM MDT (4/16) 7:17 AM MDT (4/16)
Length of Visible Light 14h 10m
Length of Day
13h 15m
Full, 98% of the Moon is Illuminated
Apr 16
Full
Apr 22
Last Quarter
Apr 29
New
May 6
First Quarter
May 14
Full

Hourly Weather History & Observations

Time (MDT) Temp. Windchill Dew Point Humidity Pressure Visibility Wind Dir Wind Speed Gust Speed Precip Events Conditions
12:14 AM 24.8 °F 5.5 °F 5.0 °F 43% 30.06 in 10.0 mi West 41.4 mph 51.8 mph N/A   Clear
12:29 AM 24.8 °F 5.7 °F 5.0 °F 43% 30.05 in 10.0 mi West 40.3 mph 46.0 mph N/A   Clear
12:49 AM 24.8 °F 7.1 °F 5.0 °F 43% 30.06 in 10.0 mi West 33.4 mph 42.6 mph N/A   Clear
1:13 AM 24.8 °F 8.1 °F 5.0 °F 43% 30.06 in 10.0 mi WSW 28.8 mph 36.8 mph N/A   Clear
1:32 AM 24.8 °F 7.9 °F 3.2 °F 40% 30.06 in 10.0 mi WSW 29.9 mph 39.1 mph N/A   Clear
1:55 AM 23.0 °F 6.0 °F 5.0 °F 46% 30.04 in 10.0 mi WSW 27.6 mph 34.5 mph N/A   Clear
2:12 AM 23.0 °F 5.1 °F 5.0 °F 46% 30.03 in 10.0 mi WSW 31.1 mph 38.0 mph N/A   Clear
2:35 AM 23.0 °F 5.4 °F 5.0 °F 46% 30.03 in 10.0 mi WSW 29.9 mph 42.6 mph N/A   Clear
2:54 AM 24.8 °F 5.7 °F 5.0 °F 43% 30.02 in 10.0 mi West 40.3 mph 48.3 mph N/A   Mostly Cloudy
3:06 AM 24.8 °F 5.7 °F 5.0 °F 43% 30.03 in 10.0 mi West 40.3 mph 48.3 mph N/A   Mostly Cloudy
3:34 AM 24.8 °F 5.7 °F 5.0 °F 43% 30.04 in 10.0 mi West 40.3 mph 47.2 mph N/A   Overcast
3:49 AM 24.8 °F 7.3 °F 5.0 °F 43% 30.04 in 10.0 mi West 32.2 mph 43.7 mph N/A   Overcast
4:12 AM 24.8 °F 7.1 °F 5.0 °F 43% 30.05 in 10.0 mi West 33.4 mph 41.4 mph N/A   Scattered Clouds
4:35 AM 24.8 °F 8.1 °F 6.8 °F 46% 30.05 in 10.0 mi WSW 28.8 mph 42.6 mph N/A   Scattered Clouds
4:55 AM 26.6 °F 9.8 °F 6.8 °F 43% 30.04 in 10.0 mi West 32.2 mph 40.3 mph N/A   Overcast
5:13 AM 26.6 °F 8.9 °F 6.8 °F 43% 30.04 in 10.0 mi West 36.8 mph 46.0 mph N/A   Overcast
5:28 AM 26.6 °F 8.7 °F 6.8 °F 43% 30.04 in 10.0 mi West 38.0 mph 43.7 mph N/A   Overcast
5:52 AM 24.8 °F 7.1 °F 8.6 °F 50% 30.05 in 10.0 mi West 33.4 mph 42.6 mph N/A   Overcast
6:04 AM 24.8 °F 6.6 °F 8.6 °F 50% 30.06 in 10.0 mi West 35.7 mph 42.6 mph N/A   Overcast
6:31 AM 24.8 °F 4.0 °F 12.2 °F 59% 30.05 in 5.0 mi West 50.6 mph 58.7 mph N/A Snow Light Snow
6:52 AM 23.0 °F 4.6 °F 14.0 °F 68% 30.06 in 10.0 mi WSW 33.4 mph 47.2 mph N/A   Overcast
7:08 AM 24.8 °F 9.6 °F 12.2 °F 59% 30.08 in 10.0 mi WSW 23.0 mph 34.5 mph N/A   Overcast
7:35 AM 24.8 °F 7.6 °F 10.4 °F 54% 30.08 in 10.0 mi West 31.1 mph 39.1 mph N/A   Overcast
7:53 AM 26.6 °F 9.3 °F 10.4 °F 51% 30.08 in 10.0 mi West 34.5 mph 40.3 mph N/A   Overcast
8:07 AM 26.6 °F 9.6 °F 10.4 °F 51% 30.10 in 10.0 mi West 33.4 mph 41.4 mph N/A   Overcast
8:24 AM 26.6 °F 9.6 °F 10.4 °F 51% 30.10 in 10.0 mi West 33.4 mph 40.3 mph N/A   Overcast
8:51 AM 26.6 °F 11.1 °F 10.4 °F 51% 30.10 in 10.0 mi West 26.5 mph 36.8 mph N/A   Overcast
9:12 AM 26.6 °F 10.6 °F 10.4 °F 51% 30.10 in 10.0 mi West 28.8 mph 34.5 mph N/A   Overcast
9:32 AM 26.6 °F 9.3 °F 10.4 °F 51% 30.10 in 10.0 mi West 34.5 mph 38.0 mph N/A   Mostly Cloudy
9:54 AM 26.6 °F 8.1 °F 12.2 °F 55% 30.09 in 10.0 mi West 41.4 mph 49.5 mph N/A   Scattered Clouds
10:10 AM 28.4 °F 11.6 °F 12.2 °F 51% 30.10 in 10.0 mi West 35.7 mph 46.0 mph N/A   Scattered Clouds
10:31 AM 28.4 °F 10.4 °F 12.2 °F 51% 30.09 in 10.0 mi West 42.6 mph 52.9 mph N/A   Clear
10:41 AM 28.4 °F 11.2 °F 12.2 °F 51% 30.10 in 10.0 mi West 38.0 mph 55.2 mph N/A   Clear
11:12 AM 28.4 °F 10.6 °F 12.2 °F 51% 30.10 in 10.0 mi West 41.4 mph 47.2 mph N/A   Clear
11:34 AM 28.4 °F 9.3 °F 14.0 °F 55% 30.09 in 10.0 mi West 49.5 mph 52.9 mph N/A   Scattered Clouds
11:50 AM 28.4 °F 10.8 °F 14.0 °F 55% 30.10 in 10.0 mi West 40.3 mph 50.6 mph N/A   Scattered Clouds
12:10 PM 30.2 °F 12.4 °F 12.2 °F 47% 30.09 in 10.0 mi West 46.0 mph 50.6 mph N/A   Clear
12:20 PM 30.2 °F 12.7 °F 12.2 °F 47% 30.10 in 10.0 mi West 43.7 mph 50.6 mph N/A   Clear
12:51 PM 30.2 °F 14.1 °F 14.0 °F 51% 30.11 in 10.0 mi West 35.7 mph 47.2 mph N/A   Scattered Clouds
1:15 PM 30.2 °F 13.5 °F 14.0 °F 51% 30.10 in 10.0 mi West 39.1 mph 49.5 mph N/A   Mostly Cloudy
1:33 PM 30.2 °F 14.1 °F 14.0 °F 51% 30.10 in 10.0 mi WSW 35.7 mph 50.6 mph N/A   Mostly Cloudy
1:54 PM 32.0 °F 16.3 °F 14.0 °F 48% 30.11 in 10.0 mi West 36.8 mph 44.9 mph N/A   Overcast
2:14 PM 30.2 °F 12.9 °F 14.0 °F 51% 30.11 in 10.0 mi West 42.6 mph 51.8 mph N/A   Overcast
2:27 PM 30.2 °F 12.9 °F 14.0 °F 51% 30.11 in 10.0 mi West 42.6 mph 50.6 mph N/A   Overcast
2:54 PM 30.2 °F 13.9 °F 14.0 °F 51% 30.11 in 10.0 mi West 36.8 mph 48.3 mph N/A   Mostly Cloudy
3:15 PM 30.2 °F 13.5 °F 14.0 °F 51% 30.10 in 10.0 mi West 39.1 mph 47.2 mph N/A   Overcast
3:32 PM 32.0 °F 16.0 °F 14.0 °F 48% 30.09 in 10.0 mi West 39.1 mph - N/A   Scattered Clouds
3:55 PM 30.2 °F 12.7 °F 14.0 °F 51% 30.08 in 10.0 mi West 43.7 mph 52.9 mph N/A   Clear
4:14 PM 30.2 °F 13.3 °F 12.2 °F 47% 30.08 in 10.0 mi West 40.3 mph 49.5 mph N/A   Clear
4:34 PM 30.2 °F 13.9 °F 12.2 °F 47% 30.08 in 10.0 mi West 36.8 mph 46.0 mph N/A   Scattered Clouds
4:53 PM 30.2 °F 14.3 °F 12.2 °F 47% 30.09 in 10.0 mi West 34.5 mph 42.6 mph N/A   Scattered Clouds
5:15 PM 32.0 °F 18.1 °F 14.0 °F 48% 30.10 in 10.0 mi West 27.6 mph 35.7 mph N/A   Clear
5:34 PM 30.2 °F 14.7 °F 14.0 °F 51% 30.10 in 10.0 mi West 32.2 mph 36.8 mph N/A   Clear
5:50 PM 30.2 °F 17.4 °F 12.2 °F 47% 30.12 in 10.0 mi West 20.7 mph 26.5 mph N/A   Mostly Cloudy
6:15 PM 30.2 °F 20.8 °F 12.2 °F 47% 30.14 in 10.0 mi WNW 11.5 mph 23.0 mph N/A   Overcast
6:34 PM 28.4 °F 24.6 °F 14.0 °F 55% 30.15 in 10.0 mi NNW 3.5 mph - N/A   Overcast
6:55 PM 26.6 °F 20.0 °F 23.0 °F 86% 30.15 in 0.5 mi NE 5.8 mph - N/A Fog Light Freezing Fog
7:14 PM 24.8 °F 14.0 °F 23.0 °F 93% 30.15 in 0.2 mi NE 11.5 mph - N/A Fog Light Freezing Fog
7:35 PM 24.8 °F 12.4 °F 23.0 °F 93% 30.15 in 0.2 mi ENE 15.0 mph - N/A   Overcast
7:54 PM 24.8 °F 12.4 °F 23.0 °F 93% 30.15 in 0.2 mi NE 15.0 mph - N/A Snow Heavy Snow
8:13 PM 24.8 °F 14.0 °F 23.0 °F 93% 30.17 in 0.2 mi ENE 11.5 mph - N/A Fog Light Freezing Fog
8:35 PM 23.0 °F 10.1 °F 21.2 °F 93% 30.17 in 0.2 mi NE 15.0 mph - N/A Fog Light Freezing Fog
8:55 PM 23.0 °F 8.7 °F 21.2 °F 93% 30.18 in 0.2 mi ENE 18.4 mph 25.3 mph N/A   Overcast
9:09 PM 23.0 °F 10.1 °F 21.2 °F 93% 30.18 in 0.2 mi ENE 15.0 mph - N/A Snow Light Snow
9:30 PM 21.2 °F 8.9 °F 19.4 °F 93% 30.19 in 0.2 mi NE 12.7 mph - N/A Snow Heavy Snow
9:50 PM 21.2 °F 6.4 °F 19.4 °F 93% 30.19 in 0.2 mi ENE 18.4 mph - N/A Snow Light Snow
10:13 PM 21.2 °F 7.3 °F 19.4 °F 93% 30.19 in 0.2 mi ENE 16.1 mph - N/A   Overcast
10:35 PM 21.2 °F 7.3 °F 19.4 °F 93% 30.20 in 0.2 mi ENE 16.1 mph - N/A Fog Light Freezing Fog
10:53 PM 19.4 °F 3.2 °F 17.6 °F 93% 30.19 in 0.2 mi ENE 20.7 mph - N/A Fog Light Freezing Fog
11:15 PM 19.4 °F - 17.6 °F 93% 30.20 in 0.2 mi North - - N/A Snow Heavy Snow
11:31 PM 19.4 °F - 17.6 °F 93% 30.20 in 0.2 mi North - - N/A Snow Snow
11:55 PM 19.4 °F - 17.6 °F 93% 30.20 in 0.2 mi North - - N/A Snow Heavy Snow